Weather in Bor

Russia / Pskov Oblast     56°26′09″N   30°12′24″E
temp.,
°C
wind,
m/s
gust,
m/s
humid.,
%
clouds,
%
prec.,
mm/h
press.,
hPa
HPBL,
m
12 april, mon
mon1200:00+7s398711 0.0 1027135
03:00+6sse3108720 0.0 1028148
06:00+5sse3108849 0.0 1028174
09:00+9sse411725 0.0 1028370
12:00+14sse69510 0.0 10271086
15:00+16sse58400 0.0 10251519
18:00+14se5946100 0.0 1023692
21:00+10sse51059100 0.0 1023413
13 april, tue
tue1300:00+8sse41087100 0.0 1023461
03:00+7s2796100 0.0 1022184
06:00+6s229611 0.0 102228
09:00+10s23790 0.0 1022283
12:00+15s335251 0.0 1021811
15:00+17s233988 0.0 10201560
18:00+13sse5771100 0.0 1020352
21:00+11se1284100 0.1 102077
14 april, wed
wed1400:00+9n3691100 1.2 1019287
03:00+7n4894100 3.8 1018293
06:00+6n4795100 1.1 1017388
09:00+6n4794100 2.8 1018379
12:00+6n3594100 0.4 1018367
15:00+4n5892100 1.1 1020463
18:00+3n5995100 0.2 1020415
21:00+3nne4996100 0.2 1021434
15 april, thu
thu1500:00+3nne51096100 0.0 1020410
03:00+3nne51094100 0.0 1020484
06:00+3nne51190100 0.3 1019464
09:00+2nne61392100 2.3 1019490
12:00+3nne71393100 1.9 1019581
15:00+3nne61394100 3.1 1020648
18:00+3nne71397100 0.8 1020674
21:00+3nne61397100 1.8 1021704
16 april, fri
fri1600:00+3ne61397100 1.3 1022701
03:00+3ne51297100 1.8 1022718
06:00+3ne61292100 0.2 1023720
09:00+3ne61289100 0.2 1025716
12:00+7ne7116682 0.0 10261099
15:00+10ne711495 0.0 10271486
18:00+9ne611545 0.0 10281516
21:00+6ne512644 0.0 1030468